STARLINK-32078, 60338

Orbit data source: Space-Track

STARLINK-32078, 60338 is a payload satellite owned by SpaceX/Seattle (US) in LEO that was launched on Fri, 02 Aug 2024 UTC via an FALCON 9 launch vehicle from the Air Force Eastern Test Range (AFETR). Payload-class satellites include a variety of spacecraft equipped with specific instruments for various scientific and technological missions. These include communications satellites like Starlink; space stations such as the ISS; scientific satellites like the Hubble; Earth observation satellites from companies like Planet Labs, Umbra, and HawkEye 360; GPS; miniature CubeSats for education and research; and military/defense satellites.

Loading next visibility...
Identifier
60338, 2024-136K
Orbit
LEO
Last TLE update
1 day ago
Origin
Manufacturer
SpaceX/Seattle
Mission
Operational Commercial Communications
Bus & Motor
STARLINK V2M, Unknown motor
Mass
730 kg wet, ~700 kg dry
Launch date (UTC)
2024-08-02 (9 months ago)
Launch vehicle
FALCON 9
Launch site
Air Force Eastern Test Range (AFETR)
Object type
Payload
Rocket body
Debris
Shape & HBR
Box + 2 Pan, 29 m
Radar Cross Section
33.884 m², Large (>1 m²)

Expand to show TLE details & history

TLE from 1 day ago
0 STARLINK-32078
1 60338U 24136K   25128.21143805 -.00003993  00000-0 -12281-3 0  9991
2 60338  53.1612  54.6385 0001026 103.3599 256.7516 15.30189776 44063
Epoch: 2025-05-08T05:04Z
Definitive object data (Epoch: 2025-05-08T05:04:28.247Z)
Latitude
-0.00004°
Longitude
112.23559°
Altitude
476.307 km
Speed
7.629 km/s
True Right ascension
03h 38m 33s
True Declination
0° 00' 00"
Sunlit
Object was in daylight at TLE epoch
Visualization TLE readout
Latitude
-1.39243°
Longitude
106.34414°
Altitude
476.579 km
Speed
7.628 km/s
Apparent Right ascension
02h 51m 06s
Apparent Declination
-19° 57' 50"
Sunlit
Object is in daylight
Visualization observer readout
Local Sidereal Time
14:17:39
Azimuth
337.79° N
Elevation
-68.798°
Doppler factor
1
Orbital elements
Apogee altitude
476.205 km
Perigee altitude
474.799 km
Semi-major axis
6,853.639 km
Eccentricity
0.0001026
Inclination
53.1612°
RAAN
54.6385°
Arg. of periapsis
103.3599°
True anomaly
256.74016°
Mean anomaly
256.7516°
Eccentric anomaly
256.74588°
Mean motion
3.82526 °/min
BSTAR
-0.00012281
Orbital period
94.11 mins
Loading maneuver chart data...
Loading SW <> Apogee altitude chart data...
Loading historical data...
Loading historical data...
Loading historical data...
Loading historical data...
Loading historical data...
Loading historical data...
Loading historical data...

STARLINK-32078 Visibility forecast

Observer location: undefined°, undefined°

Span
Click to sort rows by Start time (UTC) header in descending order
Start Az.
Max El. time (UTC)
Max El. Az.
Max El.
End time (UTC)
End Az.
5 mins2025-05-09 20:24:52.586Z177.642° S2025-05-09 20:27:52.586Z118.792° SE19.749°2025-05-09 20:29:52.586Z82.782° E
5 mins2025-05-09 22:02:52.586Z260.21° W2025-05-09 22:04:52.586Z311.578° NW34.517°2025-05-09 22:07:52.586Z34.866° NE
4 mins2025-05-10 03:00:52.586Z357.732° N2025-05-10 03:01:52.586Z22.784° NE22.512°2025-05-10 03:04:52.586Z81.991° E
5 mins2025-05-10 04:37:52.586Z293.276° NW2025-05-10 04:39:52.586Z240.363° WSW37.119°2025-05-10 04:42:52.586Z152.485° SSE
|